EW6113 Weather Reports


time (UTC)temp
F
wind
direction
speed
knots
gust
knots
rain 1hr
in
rain 24hr
in
rain mn
in
humidity
%
barometer
mb
20260503211511 64 124 7.0 12.2 0.00 0.00 0.00 56 1013.9
20260503210008 63 121 7.8 13.0 0.00 0.00 0.00 60 1013.9
20260503204506 63 128 9.6 13.9 0.00 0.00 0.00 62 1013.9
20260503203010 62 115 7.0 13.0 0.00 0.00 0.00 65 1014.0
20260503201505 63 96 7.8 13.9 0.00 0.00 0.00 65 1014.1
20260503200008 62 77 6.1 16.5 0.00 0.00 0.00 67 1014.1
20260503194504 62 116 11.3 16.5 0.00 0.00 0.00 66 1014.2
20260503193002 62 81 6.1 13.9 0.00 0.00 0.00 66 1014.4
20260503191608 62 90 7.0 12.2 0.00 0.00 0.00 62 1014.4
20260503190106 61 100 6.1 12.2 0.00 0.00 0.00 65 1014.5
20260503184559 61 84 6.1 10.4 0.00 0.00 0.00 67 1014.6
20260503183115 61 76 3.5 10.4 0.00 0.00 0.00 68 1014.7
20260503181620 61 90 7.0 13.0 0.00 0.00 0.00 67 1014.8
20260503180059 61 111 4.3 7.8 0.00 0.00 0.00 67 1014.7
20260503174552 60 104 4.3 7.8 0.00 0.00 0.00 71 1014.7
20260503173056 60 222 0.0 2.6 0.00 0.00 0.00 75 1014.7
20260503171547 58 80 0.9 5.2 0.00 0.00 0.00 76 1014.7
20260503081558 54 74 0.0 0.9 0.00 0.00 0.00 86 1013.0
20260503080106 54 76 0.9 2.6 0.00 0.00 0.00 86 1013.1
20260503071604 54 86 0.9 2.6 0.00 0.00 0.00 89 1012.9
20260503070110 54 81 1.7 5.2 0.00 0.00 0.00 90 1012.8
20260503060113 55 44 2.6 6.1 0.00 0.00 0.00 90 1012.7
20260503054548 55 103 1.7 3.5 0.00 0.00 0.00 90 1012.5
20260503053049 55 73 2.6 8.7 0.00 0.00 0.00 90 1012.5
20260503051549 55 111 3.5 7.8 0.00 0.00 0.00 90 1012.3
20260503050046 55 110 0.9 7.0 0.00 0.00 0.00 89 1012.3
20260503044545 55 101 1.7 7.8 0.00 0.00 0.00 88 1012.4
20260503043045 55 90 1.7 6.1 0.00 0.00 0.00 88 1012.3
20260503041544 55 85 2.6 7.0 0.00 0.00 0.00 87 1012.2
20260503040043 56 107 3.5 6.1 0.00 0.00 0.00 86 1012.2
20260503034546 56 106 2.6 6.1 0.00 0.00 0.00 86 1012.2
20260503033048 56 129 1.7 7.8 0.00 0.00 0.00 86 1012.0
20260503031541 56 97 4.3 7.8 0.00 0.00 0.00 86 1012.0
20260503030040 56 120 1.7 7.8 0.00 0.00 0.00 86 1011.9
20260503024540 56 107 2.6 7.0 0.00 0.00 0.00 86 1011.7
20260503023040 56 97 4.3 8.7 0.00 0.00 0.00 85 1011.5
20260503021539 56 115 4.3 7.8 0.00 0.00 0.00 84 1011.6
20260503020038 57 67 3.5 8.7 0.00 0.00 0.00 83 1011.7
20260503014536 57 173 2.6 9.6 0.00 0.00 0.00 82 1011.7
20260503013046 58 67 3.5 10.4 0.00 0.00 0.00 80 1011.7
20260503011538 59 106 5.2 9.6 0.00 0.00 0.00 78 1011.8
20260503010042 58 92 7.0 13.0 0.00 0.00 0.00 79 1011.9
20260503004534 59 134 6.1 10.4 0.00 0.00 0.00 79 1011.9
20260503003034 59 82 6.1 10.4 0.00 0.00 0.00 77 1011.9
20260503001532 60 90 6.1 13.0 0.00 0.00 0.00 76 1011.9
20260503000031 60 110 6.1 13.0 0.00 0.00 0.00 74 1011.9
20260502234530 60 33 5.2 11.3 0.00 0.00 0.00 74 1011.9
20260502233028 61 45 6.1 11.3 0.00 0.00 0.00 74 1012.0
20260502231526 60 78 7.8 13.0 0.00 0.00 0.00 75 1012.2
20260502230026 60 91 6.1 12.2 0.00 0.00 0.00 75 1012.3
20260502224520 59 119 4.3 13.0 0.00 0.00 0.00 78 1012.7
20260502223018 60 136 5.2 13.0 0.00 0.00 0.00 77 1013.0
20260502221518 59 112 6.1 12.2 0.00 0.00 0.00 77 1013.2
20260502220017 59 134 6.1 11.3 0.00 0.00 0.00 77 1013.4
20260502214522 59 63 6.1 11.3 0.00 0.00 0.00 77 1013.6
20260502213015 61 117 7.0 11.3 0.00 0.00 0.00 76 1013.8